sat.trackr.live / text

‹ back to catalog

STARLINK-36769

NORAD 67871 · 2026-034X

PAYLOAD ACTIVE UNKNOWN

§ Identity

Operator
Country
US
Launch date
2026-02-20
Launch site
AFETR
Launch vehicle
Mass (kg)
RCS (m²)

Purposes: comms

External: N2YO · Heavens-Above · Gunter

§ Orbital elements

Epoch: 2026-09-19T21:57:18.993024Z

Period
93.85 min
Inclination
53.1582°
Eccentricity
0.0001130
Mean motion
15.34406603 rev/d
Perigee alt
461.9 km
Apogee alt
463.5 km
Semi-major
6,840.8 km
B*
5.2660e-4
RAAN
20.5798°
Arg perigee
92.9779°
Mean anomaly
267.1353°
Rev number
3,379

§ Raw data

STARLINK-367691 67871U 26034X   26262.91480316  .00017461  00000+0  52660-3 0  99942 67871  53.1582  20.5798 0001130  92.9779 267.1353 15.34406603 33795

JSON: /api/v1/satellites/67871 · /tle

For live sub-satellite position, see the globe view (requires WebGL).

§ Visibility from observer

Set your observer location to see the next 7 days of passes ≥ 10°. The values pass through the URL so the page stays shareable.

No JS? Fill the form by hand. The geolocation button needs JavaScript.